Content
SEND FEEDBACK

Daily
Averages
Monthly
Summary
Switzerland

GENEVA, SWITZERLAND


Home > Europe > Switzerland
Elevation: 1364 feet     Latitude: 46 15N     Longitude: 006 08E

WEATHER
 
SELECT A DAY
Number of Records: 306,355;   Date Range: 7/1/96 - 9/20/14
 
SHARE

PRINT THIS DATA

[ ← Previous Day ]
WEATHER ALMANAC - MAY 11, 2013
[ Next Day → ]
[ °C ]   °F
Weather ElementAverageHighLow
Temperature53.7 °F62.6 °F (4:50 pm)46.4 °F (2:50 am)
Dewpoint41.9 °F44.6 °F (5:20 am)36 °F (12:00 pm)
Humidity63.5 %93 % (5:20 am)31 % (7:00 pm)
Barometer30.07 in30.11 in (1:00 am)30.04 in (3:50 am)
Wind Speed2.8 mph6.9 mph (3:20 pm)
Weather ElementAverage
Visibility8 mi
Wind DirectionSE (132.3 °)

Weather ElementTotal
Precipitation---
Heating Degree Days10.5 (Base 65)
Growing Degree Days4.5 (Base 50)
Averaged from 65 records on May 11, 2013
WEATHER CONDITIONS BREAKOUT
WIND DIRECTION BREAKOUT
WEATHER BY HOUR - MAY 11, 2013
[ °C ]   °F
Local TimeTemperatureDewpointHumidityBarometerVisibilityWind DirectionWind SpeedGust SpeedPrecipitationEventsConditions
12:20 AM50.0 °F42.8 °F76 %30.09 in6.2 miVariable1.2 mphMostly Cloudy
12:50 AM50.0 °F42.8 °F76 %30.09 in6.2 miCalmMostly Cloudy
1:00 AM49.0 °F42.0 °F70 %30.11 inWNW (290°)3.5 mph
1:20 AM48.2 °F42.8 °F82 %30.09 in6.2 miVariable1.2 mphMostly Cloudy
1:50 AM48.2 °F42.8 °F82 %30.06 in6.2 miVariable1.2 mphMostly Cloudy
2:00 AM48.0 °F43.0 °F76 %30.10 in25.0 miNNW (340°)1.2 mphMostly Cloudy
2:20 AM48.2 °F42.8 °F82 %30.06 in6.2 miCalmMostly Cloudy
2:50 AM46.4 °F42.8 °F87 %30.06 in6.2 miCalmMostly Cloudy
3:00 AM47.0 °F43.0 °F81 %30.09 inNW (310°)1.2 mph
3:50 AM46.4 °F42.8 °F87 %30.04 in6.2 miVariable1.2 mphMostly Cloudy
4:20 AM46.4 °F42.8 °F87 %30.04 in6.2 miSW (230°)3.5 mphMostly Cloudy
4:50 AM46.4 °F42.8 °F87 %30.04 in6.2 miSW (230°)2.3 mphMostly Cloudy
5:20 AM46.4 °F44.6 °F93 %30.04 in6.2 miWest (270°)2.3 mphMostly Cloudy
5:50 AM46.4 °F44.6 °F93 %30.04 in6.2 miWSW (250°)1.2 mphMostly Cloudy
6:00 AM47.0 °F43.0 °F80 %30.07 inWest (280°)2.3 mph
6:20 AM46.4 °F44.6 °F93 %30.04 in6.2 miWest (270°)2.3 mphMostly Cloudy
6:50 AM48.2 °F44.6 °F87 %30.04 in6.2 miVariable3.5 mphOvercast
7:00 AM47.0 °F44.0 °F83 %30.07 inWest (270°)2.3 mph
7:20 AM48.2 °F44.6 °F87 %30.04 in6.2 miVariable1.2 mphOvercast
7:50 AM48.2 °F44.6 °F87 %30.06 in6.2 miCalmOvercast
8:00 AM49.0 °F43.0 °F74 %30.08 in28.0 miWNW (290°)2.3 mphOvercast
8:20 AM50.0 °F44.6 °F82 %30.06 in6.2 miWSW (240°)1.2 mphOvercast
8:50 AM50.0 °F44.6 °F82 %30.06 in6.2 miSW (230°)2.3 mphOvercast
9:00 AM51.0 °F42.0 °F61 %30.08 inWest (260°)2.3 mph
9:20 AM51.8 °F44.6 °F76 %30.06 in6.2 miVariable2.3 mphOvercast
9:50 AM53.6 °F44.6 °F72 %30.06 in6.2 miVariable1.2 mphOvercast
10:00 AM53.0 °F42.0 °F56 %30.08 inSSW (210°)2.3 mph
10:20 AM53.6 °F42.8 °F67 %30.06 in6.2 miVariable2.3 mphOvercast
10:50 AM55.4 °F44.6 °F67 %30.06 in6.2 miVariable2.3 mphOvercast
11:20 AM57.2 °F41.0 °F55 %30.06 in6.2 miVariable2.3 mphOvercast
11:50 AM57.2 °F41.0 °F55 %30.06 in6.2 miVariable3.5 mphOvercast
12:00 PM56.0 °F36.0 °F36 %30.06 inESE (110°)4.6 mph
12:20 PM59.0 °F41.0 °F51 %30.06 in6.2 miSE (140°)3.5 mphOvercast
12:50 PM59.0 °F42.8 °F55 %30.06 in6.2 miWest (270°)3.5 mphOvercast
1:00 PM58.0 °F40.0 °F39 %30.05 inWest (270°)5.8 mph
1:20 PM59.0 °F42.8 °F55 %30.06 in6.2 miVariable5.8 mphOvercast
1:50 PM57.2 °F41.0 °F55 %30.06 in6.2 miVariable2.3 mphMostly Cloudy
2:00 PM57.0 °F40.0 °F42 %30.06 in28.0 miNE (40°)4.6 mphOvercast
2:20 PM59.0 °F41.0 °F51 %30.06 in6.2 miENE (60°)5.8 mphMostly Cloudy
2:50 PM57.2 °F41.0 °F55 %30.06 in6.2 miNorth (360°)5.8 mphMostly Cloudy
3:00 PM58.0 °F42.0 °F44 %30.06 inNNW (330°)5.8 mph
3:20 PM59.0 °F41.0 °F51 %30.06 in6.2 miWNW (300°)6.9 mphMostly Cloudy
3:50 PM59.0 °F42.8 °F55 %30.06 in6.2 miVariable4.6 mphMostly Cloudy
4:00 PM59.0 °F38.0 °F34 %30.05 inWNW (290°)5.8 mph
4:20 PM60.8 °F41.0 °F48 %30.06 in6.2 miVariable4.6 mphMostly Cloudy
4:50 PM62.6 °F41.0 °F45 %30.06 in6.2 miVariable2.3 mphMostly Cloudy
5:20 PM59.0 °F41.0 °F51 %30.06 in6.2 miVariable2.3 mphMostly Cloudy
5:50 PM59.0 °F41.0 °F51 %30.06 in6.2 miVariable4.6 mphMostly Cloudy
6:00 PM59.0 °F40.0 °F38 %30.05 inWNW (290°)4.6 mph
6:20 PM59.0 °F41.0 °F51 %30.06 in6.2 miWest (280°)3.5 mphMostly Cloudy
6:50 PM60.8 °F39.2 °F45 %30.06 in6.2 miWSW (250°)4.6 mphMostly Cloudy
7:00 PM59.0 °F37.0 °F31 %30.05 inWest (280°)4.6 mph
7:20 PM59.0 °F39.2 °F48 %30.06 in6.2 miCalmMostly Cloudy
7:50 PM59.0 °F39.2 °F48 %30.06 in6.2 miEast (80°)4.6 mphMostly Cloudy
8:00 PM57.0 °F38.0 °F37 %30.06 in37.0 miEast (90°)2.3 mphScattered Clouds
8:20 PM57.2 °F39.2 °F51 %30.06 in6.2 miVariable2.3 mphMostly Cloudy
8:50 PM55.4 °F41.0 °F58 %30.06 in6.2 miVariable2.3 mphMostly Cloudy
9:00 PM55.0 °F40.0 °F46 %30.08 inNW (320°)1.2 mph
9:20 PM55.4 °F41.0 °F58 %30.09 in6.2 miVariable2.3 mphMostly Cloudy
9:50 PM55.4 °F42.8 °F63 %30.09 in6.2 miVariable2.3 mphMostly Cloudy
10:00 PM54.0 °F40.0 °F48 %30.11 inNorth (350°)2.3 mph
10:20 PM53.6 °F41.0 °F62 %30.09 in6.2 miVariable1.2 mphMostly Cloudy
10:50 PM53.6 °F41.0 °F62 %30.09 in6.2 miSSW (210°)4.6 mphMostly Cloudy
11:20 PM53.6 °F42.8 °F67 %30.09 in6.2 miVariable2.3 mphMostly Cloudy
11:50 PM50.0 °F42.8 °F76 %30.09 in6.2 miNW (310°)1.2 mphMostly Cloudy
Hourly data recorded from LSGG, located miles away from Geneva, Switzerland







STORIES FROM OUR PARTNERS